ATLAS 5 CENTAUR DEB, 46848

Orbit data source: Space-Track

ATLAS 5 CENTAUR DEB, 46848 is space debris in HEO originally from a launch on Wed, 17 Oct 2018 UTC launched from the Air Force Eastern Test Range (AFETR). Debris objects in space refer to the collection of defunct objects orbiting the Earth. Examples of debris include non-operational satellites, rocket bodies, and fragments generated from explosions, collisions, or faulty payload assembly.

Loading next visibility...
Identifier
46848, 2018-079DD
Orbit
HEO
Country
Flag of USUS
Related business
Flag of USUnited Launch Alliance/Lockheed Martin (US)
Manufacturer
ULA Decatur
Mission
Spacecraft
Bus & Motor
Unknown
Mass
Unknown
Launch date (UTC)
2018-10-17 (8 years ago)
Launch vehicle
Unknown
Launch site
Air Force Eastern Test Range (AFETR)
Object type
Payload
Rocket body
Debris
Shape & HBR
Unknown shape, 1.1 m
Radar Cross Section
Large (>1 m²)

Expand to show TLE details & history
Last TLE update: 2 days ago

TLE from 2 days ago
0 ATLAS 5 CENTAUR DEB
1 46848U 18079DD  26247.67974580 -.00000149  00000-0  00000+0 0  9996
2 46848  13.3702  44.6230 4425907 291.2183  27.8209  1.79125893 38211
Epoch: 2026-09-04T16:18Z
TLE epoch observation values (Epoch: 2026-09-04T16:18:50.037Z)
Latitude
-0.00011°
Longitude
176.16854°
Altitude
13,449.999 km
Speed
5.127 km/s
True Right ascension
02h 58m 42s
True Declination
0° 00' 00"
Sunlit
Object was in daylight at epoch
Visualization orbit readout
Latitude
Unknown
Longitude
Unknown
Altitude
Unknown
Speed
Unknown
Apparent Right ascension
Unknown
Apparent Declination
Unknown
Sunlit
N/A
Visualization observer readout
Local Sidereal Time
13:21:41
Azimuth
Unknown
Elevation
Unknown
Doppler factor
Unknown
Orbital elements
Apogee altitude
34,939.557 km
Perigee altitude
9,586.798 km
Semi-major axis
28,641.314 km
Eccentricity
0.44259
Inclination
13.3702°
RAAN
44.623°
Arg. of periapsis
291.2183°
True anomaly
68.77225°
Mean anomaly
27.8209°
Eccentric anomaly
46.08998°
Mean motion
0.44777 °/min
Orbital period
803.99 mins
BSTAR
0
Loading maneuver chart data...
Computing Atmospheric mass density...

Documentation

Showing up to 5 results
|